User: anonymous   Login
Location: Skalnate Pleso
(49.1889°N, 20.2450°E)
Time: 00:00:20
(UTC+01:00)
Language:

In-Cosmos 22 Rocket - Orbit

View from above orbital plane
View from above orbital plane
View from above satellite
View from above satellite

Ground track
Ground track

The orbit data is extracted from the following two-line orbital elements,

1 12646U 81075B   20023.54091314  .00000004  00000-0 -43999-5 0  9998
2 12646  81.2247  55.8488 0068174 155.6463 316.9538 14.15890724986301
Epoch (UTC): 23 January 2020 12:58:54
Eccentricity: 0.0068174
inclination: 81.2247°
perigee height: 790 km
apogee height: 888 km
right ascension of ascending node: 55.8488°
argument of perigee: 155.6463°
revolutions per day: 14.15890724
mean anomaly at epoch: 316.9538°
orbit number at epoch: 98630

The dashed part of the orbit path shows where the satellite is in the earth's shadow,  

DLR